Location: Julian California
(33.0790°N, 116.6010°W)
Time: 06:12:24
(UTC-07:00)

Cosmos 1461 - Pass Details

Date: 19 May 2017
Orbit: 525 x 648 km, 65.0° (Epoch: 28 May)

Event Time Altitude Azimuth Distance (km) Brightness Sun altitude
Rises 20:43:56 0° 326° (NW) 2,762 7.8 -12.1°
Reaches altitude 10° 20:46:09 10° 321° (NW) 1,882 6.8 -12.5°
Maximum altitude 20:50:17 52° 245° (WSW) 733 3.6 -13.2°
Enters shadow 20:54:10 12° 170° (S) 1,803 5.0 -13.9°
